[[{"header":{"parameterUnit":"m.s-1","parameterCategory":1,"la1":30.2991,"la2":30.254,"lo1":-89.0895,"lo2":-89.0444,"dy":0.0017,"dx":0.0017,"nx":28,"ny":28,"refTime":"2025-11-19T09:00:00:Z","depth":0,"parameterNumber":2,"parameterNumberName":"U-component_of_WINDS"},"data":[0,0,0,0,0,0,0,0,0,0,0,0,0,0,0,0,0,0,0,0,0,0,0,0,0,0,0,0,0,0,0,0,0,0,0,0,0,0,0,0,0,0,0,0,0,0,0,0,0,0,0,0,0,0,0,0,0,0,-2.8156,-2.8156,0,-2.8219,-2.822,-2.822,-2.8196,-2.8194,-2.8193,-2.8191,-2.8255,-2.8258,-2.8261,0,0,0,0,0,0,0,0,0,0,0,0,0,-2.8013,-2.8016,-2.8155,-2.8156,-2.8157,-2.8219,-2.822,-2.822,-2.8196,-2.8194,-2.8192,-2.8191,-2.8254,-2.8257,-2.8261,0,0,0,0,0,0,0,0,0,0,0,0,0,-2.8075,-2.8017,-2.8155,-2.8152,-2.8153,-2.8219,-2.822,-2.8221,-2.8196,-2.8194,-2.8192,-2.819,-2.8252,-2.8257,-2.8261,-2.8333,0,0,-2.8275,-2.8277,0,0,0,0,0,0,0,0,-2.8072,-2.8081,-2.8152,-2.8153,-2.8153,-2.8197,-2.8193,-2.8258,-2.8197,-2.818,-2.8191,-2.8189,-2.8237,-2.8243,-2.826,-2.8336,-2.8339,-2.8276,-2.8279,-2.8281,-2.8282,0,0,0,0,0,0,0,-2.8068,-2.8078,-2.818,-2.8153,-2.8154,-2.8148,-2.8154,-2.8205,-2.822,-2.8181,-2.8179,-2.8187,-2.8237,-2.8255,-2.8261,-2.834,-2.8276,-2.828,-2.8283,-2.8284,-2.848,-2.8482,0,0,0,0,0,0,-2.8063,-2.8074,-2.8178,-2.8182,-2.8106,-2.8152,-2.8159,-2.8185,-2.8219,-2.8222,-2.8189,-2.8186,-2.8248,-2.8256,-2.8263,-2.8349,-2.8281,-2.8285,-2.8287,-2.8477,-2.848,-2.8483,0,0,0,0,0,0,-2.806,-2.8073,-2.8176,-2.8128,-2.8141,-2.8157,-2.8186,-2.8188,-2.8206,-2.8225,-2.8228,-2.8205,-2.8247,-2.8257,-2.8316,-2.8351,-2.8287,-2.8291,-2.8475,-2.8478,-2.8482,-2.8523,0,0,0,0,0,0,-2.8056,-2.8072,-2.8099,-2.8129,-2.8143,-2.8228,-2.8188,-2.819,-2.8214,-2.821,-2.8241,-2.8244,-2.8246,-2.831,-2.8321,-2.8356,-2.8295,-2.8471,-2.8476,-2.8481,-2.8518,-2.8527,-2.8535,0,0,0,0,0,-2.8051,-2.8108,-2.8101,-2.8114,-2.8178,-2.823,-2.8239,-2.824,-2.8217,-2.8244,-2.8257,-2.8243,-2.8346,-2.8316,-2.8328,-2.8366,-2.8469,-2.8475,-2.848,-2.8515,-2.8526,-2.8535,0,0,0,0,0,0,-2.8081,-2.8112,-2.8104,-2.8172,-2.8199,-2.8226,-2.8261,-2.8252,-2.8286,-2.8281,-2.8282,-2.8289,-2.835,-2.8364,-2.833,-2.8438,-2.8404,-2.8412,-2.8426,-2.8437,-2.8445,-2.8439,-2.8298,0,0,0,0,0,-2.8096,-2.8136,-2.8161,-2.8218,-2.8232,-2.8245,-2.8267,-2.8267,-2.8294,-2.8305,-2.8323,-2.835,-2.8388,-2.8413,-2.845,-2.8521,-2.8527,-2.8553,-2.8561,-2.8568,-2.8575,-2.8613,-2.8625,-2.8501,-2.8501,-2.8501,0,0,-2.8126,-2.8148,-2.8173,-2.8225,-2.8245,-2.8287,-2.8254,-2.8299,-2.833,-2.8312,-2.8369,-2.8383,-2.8414,-2.848,-2.8509,-2.8493,-2.8611,-2.8575,-2.8581,-2.8583,-2.862,-2.8632,-2.8642,-2.8505,-2.8504,-2.8504,0,0,-2.8202,-2.8223,-2.8273,-2.8295,-2.8327,-2.8336,-2.8348,-2.8377,-2.8386,-2.8444,-2.8431,-2.8468,-2.8535,-2.8557,-2.8577,-2.8663,-2.8651,-2.8676,-2.8719,-2.8756,-2.8766,-2.8775,-2.8805,-2.8816,-2.8682,-2.8682,-2.8683,0,-2.8235,-2.8298,-2.83,-2.8347,-2.837,-2.8357,-2.8408,-2.8429,-2.8471,-2.8487,-2.8469,-2.8553,-2.8572,-2.8643,-2.8664,-2.8681,-2.8695,-2.8671,-2.8765,-2.8773,-2.8781,-2.881,-2.8822,-2.8685,-2.8685,-2.8685,-2.8684,0,-2.8337,-2.838,-2.8417,-2.8459,-2.8486,-2.8535,-2.8545,-2.8572,-2.857,-2.858,-2.864,-2.8663,-2.8704,-2.8722,-2.8719,-2.8792,-2.8781,-2.8764,-2.873,-2.8796,-2.8823,-2.8834,-2.8689,-2.8688,-2.8687,-2.8687,0,0,-2.8431,-2.8475,-2.8489,-2.8508,-2.8543,-2.8577,-2.8625,-2.8666,-2.869,-2.872,-2.876,-2.8818,-2.8802,-2.8825,-2.8825,-2.8859,-2.8926,-2.8837,-2.8838,-2.8852,-2.9007,-2.9019,-2.9032,-2.8919,-2.8921,-2.8922,-2.9004,0,-2.8509,-2.8594,-2.8598,-2.8675,-2.8715,-2.8705,-2.8747,-2.8773,-2.8785,-2.882,-2.8833,-2.8873,-2.885,-2.8864,-2.8897,-2.891,-2.8956,-2.8905,-2.8955,-2.8957,-2.8946,-2.9046,-2.9058,-2.9134,-2.9015,-2.9017,-2.9018,0,-2.8611,-2.8645,-2.8726,-2.8757,-2.8774,-2.8811,-2.885,-2.8884,-2.8914,-2.892,-2.8947,-2.8943,-2.8992,-2.8958,-2.9026,-2.8991,-2.9013,-2.9023,-2.9026,-2.9029,-2.899,-2.9051,-2.9159,-2.917,-2.9035,-2.9034,-2.9032,0,-2.8671,-2.8737,-2.8794,-2.8811,-2.8848,-2.8875,-2.8892,-2.892,-2.8944,-2.8978,-2.8994,-2.9033,-2.9054,-2.9085,-2.9092,-2.9067,-2.916,-2.9126,-2.9166,-2.9166,-2.9184,-2.9182,-2.9295,-2.9201,-2.92,-2.92,-2.92,0,-2.8756,-2.8806,-2.8821,-2.8856,-2.8912,-2.8917,-2.8972,-2.8987,-2.9012,-2.905,-2.9044,-2.9079,-2.9087,-2.9124,-2.913,-2.9185,-2.9195,-2.9201,-2.9202,-2.9201,-2.92,-2.9213,-2.9208,-2.9203,-2.9202,-2.9202,-2.9201,0,-2.8831,-2.8844,-2.8905,-2.8936,-2.8945,-2.8985,-2.9011,-2.9045,-2.9056,-2.9104,-2.9115,-2.9133,-2.9177,-2.9187,-2.9239,-2.9243,-2.9308,-2.9305,-2.9298,-2.9297,-2.9336,-2.9331,-2.946,-2.9477,-2.9372,-2.9373,-2.9374,0,-2.8884,-2.8922,-2.8958,-2.8983,-2.9001,-2.9041,-2.9067,-2.9074,-2.9101,-2.9139,-2.9168,-2.9211,-2.9246,-2.9316,-2.9333,-2.9373,-2.9369,-2.9412,-2.9375,-2.9373,-2.9369,-2.9366,-2.9369,-2.9418,-2.9419,-2.942,-2.9421,0,-2.8977,-2.8982,-2.9019,-2.9059,-2.9089,-2.9121,-2.9151,-2.9172,-2.9183,-2.9214,-2.9259,-2.9286,-2.9339,-2.9382,-2.9422,-2.9439,-2.9432,-2.9433,-2.9444,-2.9442,-2.9436,-2.9439,-2.9316,-2.9429,-2.9428,-2.9428,-2.9427,-2.9427,-2.9042,-2.9075,-2.9106,-2.9147,-2.9171,-2.92,-2.9233,-2.9249,-2.9287,-2.9331,-2.9333,-2.9382,-2.9412,-2.9466,-2.9486,-2.9524,-2.9511,-2.9527,-2.9531,-2.9534,-2.9537,-2.9432,-2.9531,-2.9531,-2.9531,-2.9531,-2.953,0,-2.9133,-2.9153,-2.9191,-2.9234,-2.9267,-2.9259,-2.9292,-2.932,-2.9363,-2.9392,-2.9427,-2.9478,-2.952,-2.9542,-2.9583,-2.961,-2.9608,-2.962,-2.9618,-2.9622,-2.9547,-2.9533,-2.9621,-2.9621,-2.9621,-2.9621,-2.9621,-2.9621,-2.9184,-2.924,-2.9249,-2.9317,-2.9336,-2.9384,-2.9404,-2.943,-2.9454,-2.9512,-2.9547,-2.9561,-2.9587,-2.9631,-2.9669,-2.9674,-2.9689,-2.9704,-2.9707,-2.9636,-2.9627,-2.9618,-2.9605,-2.9707,-2.9707,-2.9779,-2.9779,-2.978]},{"header":{"parameterUnit":"m.s-1","parameterCategory":1,"la1":30.2991,"la2":30.254,"lo1":-89.0895,"lo2":-89.0444,"dy":0.0017,"dx":0.0017,"nx":28,"ny":28,"refTime":"2025-11-19T09:00:00:Z","depth":0,"parameterNumber":3,"parameterNumberName":"V-component_of_WINDS"},"data":[0,0,0,0,0,0,0,0,0,0,0,0,0,0,0,0,0,0,0,0,0,0,0,0,0,0,0,0,0,0,0,0,0,0,0,0,0,0,0,0,0,0,0,0,0,0,0,0,0,0,0,0,0,0,0,0,0,0,1.6868,1.6869,0,1.688,1.688,1.6881,1.6867,1.6866,1.6866,1.6865,1.6876,1.6877,1.6877,0,0,0,0,0,0,0,0,0,0,0,0,0,1.6833,1.6833,1.6868,1.6869,1.6869,1.688,1.688,1.6881,1.6867,1.6866,1.6865,1.6865,1.6876,1.6876,1.6877,0,0,0,0,0,0,0,0,0,0,0,0,0,1.6847,1.6834,1.6868,1.6863,1.6863,1.688,1.688,1.6881,1.6867,1.6866,1.6865,1.6865,1.6875,1.6876,1.6878,1.69,0,0,1.6881,1.6882,0,0,0,0,0,0,0,0,1.6846,1.6848,1.6864,1.6864,1.6863,1.6871,1.6872,1.6887,1.6867,1.6865,1.6865,1.6864,1.6875,1.6876,1.688,1.6901,1.6901,1.6881,1.6882,1.6882,1.6883,0,0,0,0,0,0,0,1.6845,1.6847,1.6873,1.6864,1.6864,1.686,1.6861,1.6875,1.6874,1.6865,1.6864,1.6866,1.6874,1.6879,1.688,1.6901,1.6881,1.6882,1.6883,1.6883,1.6942,1.6943,0,0,0,0,0,0,1.6845,1.6847,1.6873,1.6873,1.6853,1.6861,1.6863,1.6869,1.6874,1.6874,1.6867,1.6865,1.6877,1.6879,1.688,1.6908,1.6882,1.6883,1.6884,1.6941,1.6942,1.6943,0,0,0,0,0,0,1.6844,1.6847,1.6872,1.686,1.6863,1.6863,1.6871,1.687,1.6874,1.6875,1.6875,1.6871,1.6877,1.6879,1.6896,1.6908,1.6884,1.6885,1.694,1.6942,1.6943,1.6962,0,0,0,0,0,0,1.6843,1.6847,1.6856,1.686,1.6863,1.6888,1.6871,1.6871,1.6877,1.6875,1.6879,1.6879,1.6876,1.6894,1.6897,1.6909,1.6886,1.6939,1.6941,1.6942,1.6961,1.6964,1.6967,0,0,0,0,0,1.6842,1.686,1.6856,1.6859,1.6874,1.6888,1.689,1.6887,1.6878,1.6886,1.6887,1.6879,1.6906,1.6896,1.6899,1.6912,1.6938,1.694,1.6942,1.6959,1.6964,1.6967,0,0,0,0,0,0,1.6856,1.6861,1.6856,1.6877,1.6882,1.6886,1.6897,1.6891,1.6899,1.6897,1.6892,1.6893,1.6912,1.6913,1.6902,1.6934,1.6921,1.6923,1.6933,1.6937,1.694,1.6939,1.6887,0,0,0,0,0,1.6862,1.6874,1.6876,1.6894,1.6897,1.6897,1.6903,1.69,1.6905,1.6907,1.6909,1.6914,1.6924,1.693,1.6939,1.6961,1.6962,1.6971,1.6975,1.6977,1.698,1.6992,1.6996,1.695,1.695,1.695,0,0,1.6874,1.6878,1.6885,1.6897,1.6901,1.6913,1.6899,1.6911,1.692,1.6909,1.6925,1.6927,1.6932,1.6952,1.6961,1.6954,1.6993,1.698,1.6982,1.6983,1.6994,1.6999,1.7003,1.6951,1.6951,1.6951,0,0,1.6901,1.6905,1.6921,1.6925,1.6932,1.6932,1.6935,1.694,1.6941,1.6958,1.695,1.696,1.6976,1.6981,1.6985,1.7016,1.7009,1.7019,1.7036,1.7048,1.7052,1.7055,1.7066,1.707,1.7021,1.7021,1.7021,0,1.6915,1.6932,1.6929,1.6943,1.6949,1.694,1.6956,1.6961,1.6969,1.6974,1.6966,1.6988,1.6991,1.7012,1.7019,1.7023,1.7027,1.7018,1.7052,1.7055,1.7058,1.7068,1.7073,1.7022,1.7022,1.7022,1.7022,0,1.6949,1.6962,1.6973,1.6983,1.699,1.7005,1.7004,1.7012,1.7008,1.7009,1.7026,1.703,1.7039,1.7044,1.704,1.7065,1.7061,1.7052,1.7039,1.7063,1.7073,1.7077,1.7024,1.7024,1.7023,1.7023,0,0,1.6985,1.6994,1.6999,1.7003,1.7011,1.702,1.7035,1.7045,1.7052,1.7058,1.7071,1.7085,1.7078,1.7083,1.708,1.7091,1.7115,1.7081,1.7081,1.7088,1.7143,1.7149,1.7154,1.7111,1.7112,1.7112,1.7143,0,1.7013,1.7039,1.7037,1.7061,1.7073,1.7066,1.7078,1.7084,1.7085,1.7095,1.7096,1.7107,1.7096,1.7099,1.7109,1.711,1.7126,1.7108,1.7122,1.7123,1.7121,1.7159,1.7166,1.7194,1.7146,1.7147,1.7148,0,1.7049,1.7058,1.7084,1.709,1.7095,1.7107,1.7117,1.7126,1.7133,1.7133,1.7139,1.7134,1.7149,1.7135,1.7155,1.7143,1.7148,1.715,1.7151,1.7152,1.7137,1.7162,1.7203,1.7207,1.7154,1.7153,1.7153,0,1.7074,1.7092,1.711,1.7115,1.7122,1.7131,1.7134,1.714,1.7147,1.7155,1.7159,1.7169,1.7175,1.7182,1.718,1.717,1.7201,1.7187,1.7202,1.7202,1.7208,1.7208,1.7251,1.7212,1.7212,1.7211,1.7211,0,1.7105,1.7121,1.7122,1.7133,1.7151,1.7149,1.7166,1.7169,1.7174,1.7185,1.7179,1.719,1.7187,1.7197,1.7196,1.7213,1.7215,1.7215,1.7215,1.7216,1.7216,1.722,1.7218,1.7213,1.7212,1.7212,1.7212,0,1.7136,1.7137,1.7156,1.7162,1.7164,1.7177,1.7182,1.7193,1.7193,1.7208,1.7211,1.7212,1.7224,1.7224,1.7237,1.7236,1.7257,1.7254,1.7255,1.7255,1.727,1.7268,1.7317,1.7324,1.7279,1.728,1.728,0,1.7156,1.7169,1.7177,1.7184,1.7189,1.7201,1.7208,1.7206,1.7214,1.7222,1.7232,1.7244,1.7253,1.7273,1.7274,1.7285,1.7282,1.7299,1.7284,1.7285,1.7283,1.7282,1.7284,1.7301,1.7302,1.7302,1.7303,0,1.7192,1.7192,1.7203,1.7215,1.7224,1.7232,1.724,1.7247,1.7246,1.7254,1.7267,1.7275,1.7289,1.7301,1.7311,1.7314,1.7308,1.7307,1.7311,1.7313,1.7313,1.7314,1.7264,1.7306,1.7306,1.7306,1.7305,1.7305,1.7218,1.723,1.7237,1.725,1.7256,1.7264,1.7274,1.7277,1.7288,1.73,1.7298,1.7312,1.7319,1.7332,1.7336,1.7347,1.7341,1.7347,1.7348,1.735,1.7352,1.7312,1.7349,1.7349,1.7349,1.7349,1.7349,0,1.7255,1.726,1.7271,1.7283,1.7293,1.7288,1.7296,1.7305,1.7318,1.7325,1.7335,1.735,1.7361,1.7364,1.7376,1.7384,1.7382,1.7387,1.7386,1.7387,1.7356,1.7352,1.7389,1.7389,1.7389,1.7389,1.7389,1.7389,1.7275,1.7294,1.7295,1.7317,1.7321,1.7336,1.7341,1.7349,1.7354,1.7372,1.7382,1.7384,1.7389,1.7401,1.7411,1.7412,1.7416,1.7423,1.7422,1.7393,1.7389,1.7386,1.7382,1.7424,1.7424,1.7452,1.7453,1.7453]}]]